Cloud_Cover
71 58 5 5 5 32 100 82 91 52 80 100 99 99 100 100 96 10 54 55 37 33 21 91 16 5 5 86 12 47 37 75 100 92 68 5 1 0 0 0 79 3 0
100 100 66 30 5 5 45 100 100 30 35 26 75 100 85 98 90 100 90 63 9 53 56 95 5 6 34 5 5 5 60 28 59 7 2 4 3 0 0 0 0 1 3
100 100 100 72 5 5 8 86 100 100 100 91 75 93 100 91 76 76 62 88 99 94 96 49 36 5 5 88 5 5 32 11 2 0 0 0 0 0 22 100 95 75 94
100 82 98 100 100 21 8 91 97 100 99 100 100 73 79 89 36 66 75 90 95 84 22 18 12 69 76 51 5 5 6 0 0 5 36 0 5 18 100 21 5 21 60
100 100 100 100 100 5 82 88 100 100 100 100 100 100 40 76 15 15 48 49 54 6 19 53 98 68 100 13 48 1 25 100 78 100 16 5 19 30 4 5 5 5 10
42 100 100 100 90 55 100 100 100 100 100 100 100 93 43 32 10 77 62 66 44 39 100 100 100 99 18 62 27 0 0 0 32 19 24 5 2 4 5 5 7 12 5
39 100 100 100 72 24 79 100 100 100 100 100 100 88 100 100 94 100 88 100 64 100 100 59 86 96 48 4 2 0 0 41 10 7 5 5 3 5 16 52 65 16 5
35 95 100 100 100 100 13 100 100 100 100 100 100 100 100 100 100 100 100 100 100 100 99 80 100 22 5 3 0 3 5 14 82 20 5 2 8 97 5 5 63 53 5
24 62 46 34 76 100 90 49 100 100 100 100 100 100 100 100 100 100 100 100 100 100 55 100 16 21 14 2 5 5 5 18 91 30 4 16 5 3 5 5 7 6 5
60 100 89 100 100 95 100 100 100 100 100 100 100 100 100 100 100 100 100 100 100 100 98 85 5 0 55 13 5 14 47 81 99 54 10 5 5 13 25 5 5 5 5
100 100 98 60 100 100 100 100 100 100 100 100 100 100 100 100 100 100 100 100 100 69 42 5 5 7 100 13 5 73 94 100 80 23 27 7 5 4 80 11 29 44 5
91 17 18 10 88 100 92 94 100 100 100 100 100 100 100 100 100 100 100 100 100 99 5 12 3 0 65 26 43 6 74 59 74 99 83 6 5 15 89 13 94 100 85
0 4 100 85 100 100 100 100 100 100 100 95 100 100 100 100 100 100 97 100 100 5 24 47 5 1 10 100 100 2 36 80 62 62 32 5 5 19 5 5 60 46 77
100 46 10 100 100 100 100 100 100 100 100 100 100 100 100 100 100 100 100 100 60 19 97 70 10 5 5 91 100 90 99 41 20 9 5 5 5 5 5 49 100 100 48
0 76 34 54 100 100 100 100 100 100 100 100 100 100 100 67 95 100 82 80 50 56 79 57 40 39 52 43 7 20 2 0 34 7 4 5 5 5 4 0 2 5 13
8 32 100 42 88 69 61 100 100 100 100 100 100 94 98 98 56 97 84 98 33 39 88 33 5 83 100 93 29 4 0 0 0 0 19 13 5 5 4 5 5 5 61
95 16 41 1 94 38 11 97 100 100 100 100 100 100 100 100 100 100 100 100 55 29 100 51 56 39 100 100 92 6 5 5 5 5 6 17 5 15 49 5 5 30 91
95 100 45 38 50 5 6 36 98 100 94 98 9 37 100 100 100 100 100 100 100 63 99 52 31 96 100 100 56 50 12 23 5 5 6 47 81 25 30 5 5 12 22
98 78 81 100 72 14 0 5 74 100 97 98 9 9 100 100 100 100 100 100 100 100 98 65 96 58 81 92 85 42 31 25 6 68 61 56 14 5 46 5 3 3 1
16 12 20 93 59 28 0 0 23 28 74 40 51 59 31 100 100 100 100 100 100 86 97 99 100 54 8 8 83 72 61 69 25 6 6 94 5 24 0 0 0 5 2
5 14 49 32 5 5 0 0 75 0 4 13 100 100 2 24 0 46 100 100 100 57 62 42 68 48 69 76 11 6 31 76 100 79 100 6 5 3 0 5 64 5 28
1 11 24 3 100 36 5 1 11 1 19 6 100 13 87 2 0 5 6 30 5 96 7 7 60 66 24 46 5 96 100 100 100 100 7 9 5 6 14 16 0 32 1
17 66 5 5 75 80 4 49 50 22 100 0 0 2 0 0 5 5 44 32 5 10 4 5 77 86 18 100 20 100 100 100 100 100 43 31 5 89 8 15 28 87 0
6 95 2 5 50 100 5 1 7 25 33 28 62 1 73 0 0 25 10 5 2 5 5 47 66 98 100 98 82 14 98 100 100 100 98 100 97 72 8 98 87 4 3
36 90 100 18 5 91 0 1 5 0 0 89 6 100 7 4 5 0 0 0 0 0 0 5 76 100 100 65 91 100 100 88 40 100 100 100 100 79 97 24 7 7 4
70 100 100 83 6 5 11 5 1 1 47 23 1 65 31 1 4 0 0 0 0 0 0 4 100 98 95 35 71 11 45 29 4 97 100 100 100 100 98 100 100 4 5